PRAETORIAN SDA_605

Last updated on Sat Oct 11 2025 00:02:05 GMT+0000 (Coordinated Universal Time)

1 65568U 25203D 25283.39495519 .00000018 00000+0 54616-5 0 9992 2 65568 81.3006 242.1502 0009870 143.2434 216.9402 13.85183888 4136
UTC large
Height (km)
Speed (km/s)
/
Latitude / Longitude
Inclination (degrees)
Orbital Period (minutes)
Azimuth
Elevation
Range (km)
Doppler Factor

Next 0 passes for location: London (51.5072 / 0.1276)

Sorry there are no passes over London.